Ukiah, CA

12:22 PM PST on November 22, 2019 (GMT -0800)
Ukiah Municipal

Weather History for KUKI - October, 2019

Change the Weather History Date:

Tuesday, October 22, 2019

  Actual Average Record
Temperature  
Mean Temperature 68 °F 58 °F  
Max Temperature 91 °F 74 °F 97 °F (1929)
Min Temperature 46 °F 43 °F 26 °F (1906)
Degree Days  
Heating Degree Days 0 7  
Month to date heating degree days 106 93  
Since 1 July heating degree days 139 126  
Cooling Degree Days 4 0  
Month to date cooling degree days 11 19  
Year to date cooling degree days 1129 832  
Growing Degree Days 18 (Base 50)    
Moisture  
Dew Point 44 °F    
Average Humidity 54    
Maximum Humidity 86    
Minimum Humidity 17    
Precipitation  
Precipitation 0.00 in 0.08 in 1.03 in (1931)
Month to date precipitation 0.05 0.95  
Year to date precipitation 35.12 24.92  
Snow  
Snow 0.00 in - - ()
Month to date snowfall 0.0  
Since 1 July snowfall 0.0  
Since 1 September snowfall 0.0  
Snow Depth 0.00 in    
Sea Level Pressure  
Sea Level Pressure 30.16 in    
Wind  
Wind Speed 1 mph ()    
Max Wind Speed 10 mph    
Max Gust Speed 14 mph    
Visibility 10.0 miles    
Events      
T = Trace of Precipitation, MM = Missing Value Source: Averaged Metar Reports

Daily Weather History Graph

Daily Weather History Graph

Search for Another Location

Airport or City:

Astronomy

Oct. 22, 2019 Rise Set
Actual Time 7:29 AM PDT 6:24 PM PDT
Civil Twilight 7:02 AM PDT 6:51 PM PDT
Nautical Twilight 6:31 AM PDT 7:22 PM PDT
Astronomical Twilight 6:00 AM PDT 7:53 PM PDT
Moon 12:49 AM PDT 3:34 PM PDT
Length of Visible Light 11h 49m
Length of Day
10h 54m
Last Quarter, 36% of the Moon is Illuminated
Oct 22
Last Quarter
Oct 27
New
Nov 4
First Quarter
Nov 12
Full
Nov 19
Last Quarter

Hourly Weather History & Observations

Time (PDT) Temp. Dew Point Humidity Pressure Visibility Wind Dir Wind Speed Gust Speed Precip Events Conditions
12:56 AM 52.0 °F 46.0 °F 80% 30.22 in 10.0 mi Calm Calm - N/A   Clear
1:56 AM 52.0 °F 46.0 °F 80% 30.23 in 10.0 mi Calm Calm - N/A   Clear
2:56 AM 52.0 °F 46.0 °F 80% 30.23 in 10.0 mi Calm Calm - N/A   Clear
3:56 AM 48.0 °F 44.1 °F 86% 30.22 in 10.0 mi Calm Calm - N/A   Clear
4:56 AM 48.0 °F 43.0 °F 83% 30.22 in 10.0 mi Calm Calm - N/A   Clear
5:56 AM 46.9 °F 43.0 °F 86% 30.23 in 10.0 mi Calm Calm - N/A   Clear
6:56 AM 48.0 °F 43.0 °F 83% 30.23 in 10.0 mi Calm Calm - N/A   Clear
7:56 AM 48.0 °F 44.1 °F 86% 30.24 in 10.0 mi Calm Calm - N/A   Clear
8:56 AM 51.1 °F 44.1 °F 77% 30.25 in 10.0 mi Calm Calm - N/A   Clear
9:56 AM 62.1 °F 45.0 °F 53% 30.25 in 10.0 mi Calm Calm - N/A   Clear
10:56 AM 69.1 °F 44.1 °F 40% 30.23 in 10.0 mi North 6.9 mph - N/A   Clear
11:56 AM 75.0 °F 42.1 °F 31% 30.21 in 10.0 mi NNW 3.5 mph - N/A   Clear
12:56 PM 81.0 °F 41.0 °F 24% 30.17 in 10.0 mi Calm Calm - N/A   Clear
1:56 PM 84.9 °F 39.9 °F 20% 30.13 in 10.0 mi Variable 3.5 mph - N/A   Clear
2:56 PM 88.0 °F 42.1 °F 20% 30.09 in 10.0 mi Calm Calm - N/A   Clear
3:56 PM 89.1 °F 42.1 °F 19% 30.08 in 10.0 mi Calm Calm - N/A   Clear
4:56 PM 89.1 °F 39.9 °F 18% 30.06 in 10.0 mi NNW 10.4 mph - N/A   Clear
5:56 PM 82.0 °F 44.1 °F 26% 30.06 in 10.0 mi NNE 8.1 mph - N/A   Clear
6:56 PM 78.1 °F 45.0 °F 31% 30.07 in 10.0 mi NNE 3.5 mph - N/A   Clear
7:56 PM 70.0 °F 46.0 °F 42% 30.08 in 10.0 mi West 3.5 mph - N/A   Clear
9:56 PM 62.1 °F 46.9 °F 58% 30.09 in 10.0 mi Calm Calm - N/A   Clear
10:56 PM 61.0 °F 46.9 °F 60% 30.09 in 10.0 mi NW 3.5 mph - N/A   Clear
11:56 PM 57.0 °F 46.9 °F 69% 30.09 in 10.0 mi Calm Calm - N/A   Clear